Flag for U.S.A. Weather past 2 weeks in Lincoln, Nebraska, U.S.A.

Now
63 °F

Sunny.


Feels Like: 63 °F
Forecast: 32 / 56 °F
Wind: 9 mph from West

Location: Lincoln Municipal Airport

Current Time: Mar 6, 2015 at 6:12:14 PM

Latest Report: Mar 6, 2015 at 4:54 PM


Visibility: 10 mi

Pressure: 30.14 "Hg

Humidity: 14%

Dew point: 13 °F

Location of LincolnLocation

Historic Weather in Lincoln — Graph

°F

Lincoln temperature yesterday

Maximum temperature yesterday: 35 °F (at 3:54 PM)
Minimum temperature yesterday: 0 °F (at 3:54 AM)
Average temperature yesterday: 19 °F

Past Weeks' High & Low Weather Summary

 TemperatureHumidityPressure
High63 °F (Mar 6, 2:54 PM)100% (Mar 3, 5:54 AM)30.89 "Hg (Mar 3, 5:54 AM)
Low-6 °F (Feb 27, 6:54 AM)14% (Mar 6, 3:54 PM)29.68 "Hg (Mar 3, 6:57 AM)
Average22 °F61%30.32 "Hg
* Reported Feb 19 4:54 PM — Mar 6 4:54 PM, Lincoln, Weather by CustomWeather, © 2015

Note: Actual official high and low records may vary slightly from our data, if they occured in-between our weather recording intervals... More about our weather records

Advertising

Lincoln weather history for previous 24 hours

 ConditionsComfort  
Time TempWeatherWind HumidityBarometerVisibility
4:54 PM
Fri, Mar 6
63 °FSunny.9 mph14%30.14 "Hg10 mi
3:54 PM63 °FSunny.17 mph14%30.16 "Hg10 mi
2:54 PM63 °FSunny.13 mph15%30.16 "Hg10 mi
1:54 PM62 °FSunny.14 mph17%30.18 "Hg10 mi
12:54 PM60 °FSunny.17 mph18%30.21 "Hg10 mi
11:54 AM57 °FSunny.15 mph21%30.24 "Hg10 mi
10:54 AM53 °FSunny.10 mph27%30.26 "Hg10 mi
9:54 AM44 °FSunny.No wind37%30.28 "Hg10 mi
8:54 AM34 °FSunny.7 mph50%30.29 "Hg10 mi
7:54 AM26 °FSunny.7 mph63%30.28 "Hg10 mi
6:54 AM19 °FSunny.6 mph74%30.26 "Hg10 mi
5:54 AM21 °FClear.3 mph68%30.26 "Hg10 mi
4:54 AM26 °FClear.6 mph60%30.24 "Hg10 mi
3:54 AM23 °FClear.3 mph68%30.25 "Hg10 mi
2:54 AM26 °FClear.7 mph63%30.26 "Hg10 mi
1:54 AM28 °FClear.13 mph61%30.27 "Hg10 mi
12:54 AM26 °FPassing clouds.13 mph60%30.29 "Hg10 mi
11:54 PM
Thu, Mar 5
27 °FOvercast.12 mph55%30.33 "Hg10 mi
10:54 PM27 °FPassing clouds.14 mph51%30.36 "Hg10 mi
9:54 PM27 °FPassing clouds.13 mph49%30.39 "Hg10 mi
8:54 PM24 °FClear.8 mph52%30.40 "Hg10 mi
7:54 PM27 °FClear.9 mph46%30.42 "Hg10 mi
6:54 PM30 °FClear.12 mph40%30.44 "Hg10 mi
Weather by CustomWeather, © 2015

See weather overviewHow to use our weather pages